This demonstration page uses our WeatherBlox Daily Observations layout. Learn more.

Left ArrowRight Arrow

34.02893, -84.19858

Hourly Observations for November 7, 2016

Temp ( °F °C ) Dew Point ( °F °C ) Humidity (%) Winds ( mph kmh ) Pressure ( in mb ) Visibility ( mi km ) Precip ( " mm )
12:53 am 00:53 Clear 45 7.2 39 3.9 80 80 Calm 30.31 1026 10 16 0.00 0.00
1:53 am 01:53 Clear 51 10.6 40 4.4 66 66 E 5 7 30.30 1026 10 16 0.00 0.00
2:53 am 02:53 Clear 48 8.9 40 4.4 74 74 Calm 30.30 1026 10 16 0.00 0.00
3:53 am 03:53 Clear 46 7.8 40 4.4 79 79 Calm 30.31 1026 10 16 0.00 0.00
4:53 am 04:53 Clear 45 7.2 40 4.4 83 83 Calm 30.32 1027 10 16 0.00 0.00
5:53 am 05:53 Clear 47 8.3 41 5 80 80 NNE 3 6 30.35 1028 9 14 0.00 0.00
6:53 am 06:53 Clear 48 8.9 40 4.4 74 74 VRB 3 6 30.36 1028 9 14 0.00 0.00
7:53 am 07:53 Sunny 51 10.6 41 5 69 69 E 3 6 30.39 1029 8 13 0.00 0.00
8:53 am 08:53 Sunny 57 13.9 42 5.6 58 58 E 6 9 30.40 1029 10 16 0.00 0.00
9:53 am 09:53 Sunny 61 16.1 41 5 48 48 ENE 7 11 30.40 1029 10 16 0.00 0.00
10:53 am 10:53 Sunny 65 18.3 39 3.9 39 39 ENE 10 17 30.40 1029 10 16 0.00 0.00
11:53 am 11:53 Sunny 67 19.4 37 2.8 33 33 ESE 10 17 30.38 1029 10 16 0.00 0.00
12:53 pm 12:53 Sunny 69 20.6 36 2.2 30 30 SE 10 17 30.36 1028 10 16 0.00 0.00
1:53 pm 13:53 Sunny 70 21.1 35 1.7 28 28 VRB 6 9 30.32 1027 10 16 0.00 0.00
2:53 pm 14:53 Sunny 71 21.7 34 1.1 26 26 VRB 5 7 30.31 1026 10 16 0.00 0.00
3:53 pm 15:53 Sunny 71 21.7 34 1.1 26 26 ESE 8 13 30.30 1026 10 16 0.00 0.00
4:53 pm 16:53 Sunny 69 20.6 34 1.1 27 27 VRB 5 7 30.30 1026 10 16 0.00 0.00
5:53 pm 17:53 Clear 63 17.2 36 2.2 37 37 E 3 6 30.31 1027 10 16 0.00 0.00
6:53 pm 18:53 Clear 62 16.7 36 2.2 38 38 E 3 6 30.33 1027 10 16 0.00 0.00
7:53 pm 19:53 Clear 57 13.9 36 2.2 45 45 E 5 7 30.35 1028 10 16 0.00 0.00
8:53 pm 20:53 Clear 58 14.4 35 1.7 42 42 ENE 3 6 30.33 1027 10 16 0.00 0.00
9:53 pm 21:53 Clear 55 12.8 35 1.7 47 47 Calm 30.34 1027 10 16 0.00 0.00
10:53 pm 22:53 Clear 55 12.8 36 2.2 49 49 E 3 6 30.33 1027 10 16 0.00 0.00
11:53 pm 23:53 Clear 53 11.7 37 2.8 55 55 E 3 6 30.33 1027 10 16 0.00 0.00

Powered by AerisWeather